QPF
0.03 0.04 0.06 0.08 0.07 0.04 0.06 0.05 0.04 0.05 0.06 0.06 0.05 0.04 0.06 0.06 0.05 0.04 0.03 0.02 0.03 0.04 0.05 0.07 0.10 0.11 0.13 0.11 0.10 0.14 0.15 0.11 0.07 0.06 0.06 0.06 0.06 0.06 0.06 0.06 0.04 0.05 0.06
0.05 0.04 0.04 0.06 0.07 0.05 0.06 0.05 0.06 0.06 0.05 0.06 0.05 0.04 0.05 0.06 0.05 0.05 0.04 0.04 0.04 0.05 0.05 0.06 0.11 0.12 0.12 0.11 0.11 0.13 0.15 0.17 0.15 0.11 0.08 0.07 0.06 0.06 0.06 0.04 0.04 0.04 0.05
0.05 0.05 0.04 0.05 0.07 0.06 0.06 0.06 0.06 0.06 0.05 0.05 0.05 0.05 0.05 0.05 0.05 0.05 0.05 0.05 0.05 0.05 0.04 0.06 0.11 0.11 0.11 0.11 0.14 0.14 0.12 0.13 0.13 0.10 0.08 0.07 0.06 0.06 0.06 0.04 0.04 0.04 0.04
0.06 0.06 0.05 0.06 0.07 0.07 0.07 0.08 0.07 0.06 0.05 0.05 0.06 0.06 0.05 0.05 0.05 0.05 0.05 0.05 0.04 0.04 0.06 0.07 0.08 0.09 0.11 0.13 0.14 0.14 0.12 0.10 0.08 0.07 0.07 0.06 0.06 0.06 0.05 0.05 0.05 0.05 0.04
0.05 0.05 0.05 0.04 0.05 0.07 0.07 0.07 0.06 0.07 0.07 0.08 0.07 0.07 0.07 0.05 0.05 0.04 0.05 0.05 0.05 0.06 0.08 0.07 0.06 0.07 0.10 0.16 0.18 0.14 0.10 0.09 0.08 0.07 0.08 0.08 0.09 0.08 0.06 0.05 0.05 0.05 0.04
0.05 0.06 0.05 0.03 0.04 0.05 0.06 0.07 0.08 0.08 0.07 0.08 0.09 0.10 0.08 0.06 0.05 0.05 0.05 0.06 0.06 0.06 0.05 0.06 0.07 0.06 0.07 0.11 0.15 0.19 0.16 0.13 0.10 0.08 0.06 0.07 0.09 0.10 0.08 0.08 0.11 0.08 0.05
0.06 0.06 0.04 0.04 0.04 0.05 0.06 0.08 0.08 0.08 0.08 0.09 0.10 0.11 0.09 0.06 0.06 0.05 0.05 0.06 0.05 0.05 0.05 0.06 0.06 0.05 0.06 0.08 0.09 0.13 0.18 0.16 0.14 0.11 0.10 0.10 0.10 0.11 0.11 0.09 0.07 0.06 0.05
0.04 0.03 0.04 0.04 0.04 0.04 0.05 0.06 0.07 0.07 0.07 0.08 0.11 0.12 0.11 0.08 0.06 0.04 0.04 0.05 0.06 0.06 0.06 0.05 0.05 0.05 0.06 0.07 0.07 0.08 0.12 0.16 0.17 0.14 0.14 0.17 0.17 0.16 0.14 0.10 0.06 0.04 0.04
0.05 0.04 0.04 0.05 0.05 0.03 0.04 0.05 0.06 0.06 0.07 0.07 0.09 0.11 0.12 0.10 0.08 0.06 0.05 0.04 0.05 0.07 0.08 0.06 0.05 0.04 0.03 0.05 0.08 0.06 0.06 0.08 0.11 0.13 0.13 0.14 0.17 0.20 0.20 0.15 0.10 0.07 0.05
0.05 0.05 0.04 0.07 0.09 0.05 0.05 0.04 0.05 0.06 0.07 0.09 0.09 0.09 0.09 0.09 0.09 0.08 0.07 0.07 0.06 0.06 0.06 0.06 0.05 0.04 0.03 0.05 0.06 0.05 0.04 0.05 0.08 0.10 0.10 0.11 0.14 0.17 0.21 0.20 0.14 0.09 0.05
0.06 0.06 0.06 0.08 0.08 0.07 0.06 0.05 0.04 0.05 0.06 0.09 0.09 0.08 0.07 0.08 0.08 0.07 0.06 0.07 0.07 0.06 0.05 0.05 0.05 0.05 0.04 0.04 0.04 0.03 0.03 0.04 0.05 0.06 0.08 0.11 0.13 0.14 0.16 0.19 0.19 0.15 0.10
0.05 0.05 0.07 0.05 0.04 0.04 0.05 0.04 0.04 0.05 0.06 0.06 0.07 0.06 0.07 0.07 0.07 0.07 0.06 0.06 0.06 0.06 0.05 0.05 0.04 0.04 0.04 0.04 0.03 0.03 0.03 0.05 0.04 0.04 0.06 0.08 0.09 0.09 0.12 0.15 0.18 0.17 0.16
0.03 0.03 0.04 0.05 0.05 0.05 0.03 0.03 0.03 0.04 0.05 0.04 0.04 0.05 0.05 0.05 0.05 0.06 0.07 0.06 0.05 0.05 0.06 0.05 0.04 0.03 0.04 0.05 0.04 0.03 0.03 0.03 0.03 0.04 0.05 0.07 0.08 0.09 0.10 0.12 0.15 0.17 0.16
0.02 0.02 0.02 0.02 0.02 0.04 0.03 0.02 0.02 0.03 0.03 0.04 0.03 0.03 0.03 0.04 0.04 0.05 0.06 0.06 0.07 0.08 0.09 0.09 0.07 0.06 0.05 0.05 0.04 0.02 0.03 0.02 0.03 0.05 0.07 0.12 0.13 0.13 0.12 0.11 0.12 0.14 0.17
0.02 0.02 0.02 0.01 0.01 0.01 0.02 0.02 0.02 0.02 0.02 0.03 0.03 0.03 0.03 0.03 0.04 0.06 0.07 0.09 0.11 0.10 0.10 0.11 0.09 0.07 0.06 0.05 0.04 0.03 0.04 0.02 0.02 0.04 0.05 0.06 0.09 0.12 0.13 0.12 0.11 0.11 0.12
0.01 0.01 0.02 0.01 0.01 0.01 0.02 0.02 0.02 0.02 0.02 0.03 0.03 0.03 0.05 0.04 0.05 0.06 0.06 0.07 0.07 0.06 0.07 0.07 0.06 0.05 0.04 0.04 0.05 0.03 0.03 0.03 0.03 0.03 0.03 0.03 0.05 0.09 0.11 0.12 0.12 0.10 0.09
0.02 0.01 0.01 0.01 0.02 0.02 0.01 0.01 0.01 0.02 0.02 0.02 0.03 0.04 0.06 0.07 0.06 0.05 0.04 0.05 0.05 0.05 0.06 0.06 0.06 0.05 0.04 0.05 0.07 0.07 0.08 0.09 0.07 0.03 0.02 0.02 0.03 0.07 0.10 0.15 0.17 0.14 0.12
0.02 0.01 0.01 0.02 0.02 0.01 0.01 0.01 0.01 0.01 0.02 0.03 0.04 0.04 0.03 0.03 0.04 0.04 0.04 0.05 0.05 0.05 0.05 0.06 0.06 0.06 0.05 0.06 0.09 0.11 0.10 0.10 0.07 0.05 0.04 0.03 0.03 0.06 0.09 0.11 0.13 0.12 0.09
0.02 0.01 0.01 0.01 0.01 0.01 0.01 0.01 0.01 0.01 0.01 0.03 0.06 0.07 0.04 0.03 0.04 0.05 0.05 0.05 0.06 0.05 0.05 0.04 0.04 0.05 0.06 0.07 0.07 0.06 0.06 0.06 0.04 0.05 0.04 0.03 0.03 0.03 0.05 0.06 0.07 0.06 0.05
0.01 0.01 0.01 0.01 0.01 0.01 0.01 0.01 0.01 0.01 0.02 0.02 0.03 0.04 0.04 0.04 0.04 0.05 0.04 0.05 0.06 0.06 0.06 0.05 0.04 0.03 0.03 0.02 0.04 0.04 0.04 0.04 0.04 0.03 0.03 0.03 0.03 0.02 0.02 0.04 0.05 0.04 0.04
0.01 0.00 0.00 0.01 0.01 0.01 0.01 0.01 0.01 0.02 0.02 0.02 0.02 0.02 0.02 0.02 0.02 0.02 0.02 0.04 0.04 0.04 0.04 0.04 0.03 0.02 0.02 0.02 0.02 0.03 0.02 0.03 0.03 0.02 0.02 0.02 0.03 0.03 0.04 0.05 0.05 0.04 0.03
0.00 0.00 0.00 0.00 0.01 0.01 0.01 0.01 0.01 0.01 0.02 0.02 0.02 0.02 0.01 0.01 0.01 0.01 0.01 0.02 0.03 0.03 0.04 0.04 0.03 0.02 0.02 0.01 0.02 0.03 0.02 0.02 0.02 0.02 0.02 0.04 0.05 0.06 0.06 0.05 0.03 0.02 0.01
0.01 0.01 0.01 0.01 0.01 0.01 0.01 0.01 0.02 0.01 0.02 0.03 0.02 0.03 0.02 0.01 0.01 0.01 0.01 0.01 0.01 0.01 0.02 0.03 0.03 0.03 0.03 0.02 0.02 0.02 0.02 0.01 0.02 0.02 0.03 0.05 0.06 0.06 0.05 0.03 0.02 0.01 0.01
0.01 0.01 0.01 0.01 0.02 0.02 0.02 0.02 0.02 0.03 0.03 0.04 0.03 0.04 0.03 0.02 0.02 0.02 0.02 0.02 0.02 0.01 0.01 0.01 0.02 0.03 0.03 0.03 0.01 0.02 0.02 0.01 0.02 0.02 0.03 0.05 0.05 0.04 0.03 0.02 0.01 0.01 0.00
0.01 0.02 0.02 0.02 0.02 0.01 0.02 0.03 0.04 0.05 0.06 0.07 0.07 0.05 0.04 0.03 0.02 0.02 0.01 0.02 0.02 0.01 0.01 0.01 0.01 0.01 0.02 0.02 0.02 0.02 0.01 0.01 0.01 0.02 0.04 0.04 0.04 0.03 0.01 0.00 0.00 0.00 0.00
0.02 0.02 0.02 0.01 0.01 0.01 0.02 0.04 0.05 0.05 0.06 0.05 0.05 0.05 0.05 0.03 0.02 0.01 0.01 0.02 0.02 0.01 0.01 0.01 0.01 0.01 0.01 0.01 0.01 0.01 0.02 0.02 0.03 0.03 0.02 0.02 0.02 0.02 0.01 0.01 0.00 0.00 0.00
MSLP
1016.20 1016.19 1016.12 1016.00 1015.86 1015.73 1015.64 1015.62 1015.66 1015.75 1015.86 1015.96 1016.04 1016.08 1016.09 1016.09 1016.10 1016.17 1016.29 1016.47 1016.70 1016.95 1017.19 1017.39 1017.54 1017.62 1017.64 1017.61 1017.55 1017.47 1017.38 1017.31 1017.26 1017.24 1017.26 1017.32 1017.42 1017.56 1017.74 1017.93 1018.12 1018.30 1018.45
1016.46 1016.41 1016.30 1016.14 1015.98 1015.84 1015.77 1015.79 1015.90 1016.08 1016.31 1016.54 1016.74 1016.87 1016.95 1016.97 1016.97 1016.97 1016.99 1017.06 1017.17 1017.31 1017.47 1017.61 1017.70 1017.74 1017.70 1017.59 1017.42 1017.21 1016.99 1016.78 1016.61 1016.51 1016.49 1016.56 1016.73 1016.97 1017.26 1017.58 1017.89 1018.16 1018.39
1016.85 1016.76 1016.61 1016.42 1016.23 1016.10 1016.05 1016.11 1016.28 1016.56 1016.89 1017.22 1017.52 1017.74 1017.87 1017.92 1017.90 1017.84 1017.79 1017.76 1017.77 1017.81 1017.87 1017.93 1017.95 1017.89 1017.75 1017.52 1017.20 1016.83 1016.43 1016.06 1015.76 1015.57 1015.53 1015.63 1015.88 1016.24 1016.69 1017.16 1017.61 1018.00 1018.30
1017.28 1017.16 1016.98 1016.77 1016.58 1016.45 1016.41 1016.51 1016.73 1017.07 1017.46 1017.87 1018.24 1018.52 1018.70 1018.77 1018.75 1018.67 1018.57 1018.48 1018.42 1018.38 1018.37 1018.34 1018.26 1018.10 1017.83 1017.44 1016.95 1016.38 1015.80 1015.27 1014.84 1014.57 1014.50 1014.64 1014.98 1015.48 1016.07 1016.69 1017.28 1017.78 1018.17
1017.67 1017.53 1017.34 1017.12 1016.93 1016.81 1016.80 1016.91 1017.16 1017.51 1017.93 1018.37 1018.77 1019.09 1019.30 1019.40 1019.40 1019.33 1019.23 1019.13 1019.04 1018.98 1018.91 1018.81 1018.65 1018.37 1017.96 1017.42 1016.75 1016.01 1015.25 1014.56 1014.02 1013.69 1013.60 1013.78 1014.19 1014.80 1015.51 1016.26 1016.96 1017.54 1017.98
1017.97 1017.82 1017.63 1017.43 1017.25 1017.14 1017.14 1017.25 1017.48 1017.82 1018.22 1018.64 1019.03 1019.35 1019.58 1019.72 1019.77 1019.75 1019.70 1019.65 1019.59 1019.53 1019.46 1019.33 1019.10 1018.74 1018.22 1017.54 1016.73 1015.85 1014.96 1014.15 1013.52 1013.13 1013.03 1013.22 1013.68 1014.35 1015.13 1015.94 1016.69 1017.32 1017.78
1018.16 1018.02 1017.84 1017.67 1017.52 1017.43 1017.42 1017.51 1017.70 1017.98 1018.31 1018.67 1019.01 1019.31 1019.56 1019.73 1019.85 1019.92 1019.96 1019.99 1020.01 1020.02 1019.98 1019.86 1019.61 1019.21 1018.63 1017.88 1016.99 1016.02 1015.05 1014.18 1013.49 1013.07 1012.95 1013.13 1013.59 1014.25 1015.04 1015.84 1016.58 1017.18 1017.61
1018.30 1018.16 1018.01 1017.87 1017.76 1017.69 1017.67 1017.73 1017.85 1018.04 1018.27 1018.53 1018.80 1019.06 1019.30 1019.51 1019.69 1019.87 1020.03 1020.18 1020.31 1020.41 1020.45 1020.38 1020.17 1019.79 1019.22 1018.46 1017.57 1016.59 1015.61 1014.73 1014.03 1013.58 1013.43 1013.58 1013.99 1014.59 1015.30 1016.02 1016.68 1017.20 1017.56
1018.42 1018.31 1018.20 1018.10 1018.03 1017.97 1017.95 1017.96 1018.01 1018.09 1018.20 1018.35 1018.52 1018.72 1018.94 1019.17 1019.43 1019.69 1019.97 1020.24 1020.50 1020.71 1020.85 1020.87 1020.74 1020.43 1019.93 1019.25 1018.42 1017.52 1016.60 1015.77 1015.10 1014.65 1014.47 1014.55 1014.87 1015.35 1015.93 1016.51 1017.03 1017.43 1017.68
1018.60 1018.51 1018.44 1018.39 1018.36 1018.33 1018.30 1018.27 1018.24 1018.21 1018.21 1018.24 1018.31 1018.44 1018.62 1018.87 1019.16 1019.50 1019.87 1020.25 1020.61 1020.93 1021.17 1021.29 1021.27 1021.07 1020.69 1020.14 1019.46 1018.69 1017.90 1017.16 1016.56 1016.13 1015.92 1015.93 1016.12 1016.46 1016.87 1017.28 1017.63 1017.88 1018.02
1018.85 1018.78 1018.76 1018.76 1018.76 1018.76 1018.72 1018.66 1018.57 1018.46 1018.35 1018.28 1018.26 1018.31 1018.45 1018.68 1018.98 1019.36 1019.78 1020.22 1020.66 1021.06 1021.38 1021.60 1021.69 1021.63 1021.40 1021.03 1020.53 1019.94 1019.31 1018.71 1018.20 1017.81 1017.58 1017.51 1017.59 1017.77 1018.01 1018.25 1018.44 1018.55 1018.59
1019.13 1019.10 1019.11 1019.15 1019.19 1019.21 1019.18 1019.10 1018.96 1018.79 1018.61 1018.46 1018.36 1018.35 1018.44 1018.64 1018.93 1019.31 1019.74 1020.20 1020.67 1021.10 1021.48 1021.78 1021.98 1022.05 1021.99 1021.80 1021.50 1021.11 1020.67 1020.22 1019.81 1019.48 1019.24 1019.12 1019.09 1019.14 1019.23 1019.32 1019.38 1019.39 1019.35
1019.41 1019.40 1019.43 1019.50 1019.57 1019.60 1019.58 1019.50 1019.34 1019.14 1018.92 1018.73 1018.58 1018.53 1018.57 1018.73 1018.99 1019.33 1019.73 1020.18 1020.63 1021.07 1021.48 1021.83 1022.12 1022.31 1022.40 1022.39 1022.29 1022.09 1021.83 1021.53 1021.23 1020.96 1020.74 1020.58 1020.48 1020.44 1020.43 1020.42 1020.40 1020.34 1020.26
1019.61 1019.61 1019.66 1019.74 1019.82 1019.87 1019.86 1019.78 1019.63 1019.43 1019.20 1018.99 1018.83 1018.75 1018.77 1018.88 1019.10 1019.39 1019.75 1020.15 1020.56 1020.99 1021.40 1021.78 1022.13 1022.42 1022.65 1022.79 1022.85 1022.83 1022.73 1022.57 1022.37 1022.17 1021.97 1021.81 1021.69 1021.60 1021.53 1021.48 1021.42 1021.35 1021.25
1019.70 1019.70 1019.75 1019.82 1019.90 1019.95 1019.95 1019.89 1019.76 1019.58 1019.38 1019.19 1019.04 1018.95 1018.95 1019.04 1019.21 1019.46 1019.76 1020.11 1020.48 1020.87 1021.28 1021.68 1022.07 1022.44 1022.76 1023.03 1023.22 1023.34 1023.36 1023.32 1023.21 1023.08 1022.92 1022.78 1022.66 1022.57 1022.50 1022.45 1022.40 1022.34 1022.27
1019.67 1019.65 1019.68 1019.74 1019.80 1019.85 1019.86 1019.82 1019.73 1019.59 1019.43 1019.27 1019.15 1019.08 1019.08 1019.16 1019.30 1019.51 1019.77 1020.07 1020.40 1020.77 1021.16 1021.57 1022.00 1022.42 1022.81 1023.17 1023.45 1023.66 1023.78 1023.82 1023.79 1023.71 1023.61 1023.51 1023.42 1023.36 1023.33 1023.31 1023.30 1023.28 1023.25
1019.52 1019.49 1019.50 1019.54 1019.59 1019.63 1019.65 1019.63 1019.57 1019.48 1019.37 1019.26 1019.18 1019.14 1019.16 1019.23 1019.36 1019.54 1019.77 1020.04 1020.35 1020.70 1021.09 1021.51 1021.96 1022.41 1022.85 1023.25 1023.59 1023.85 1024.03 1024.13 1024.15 1024.12 1024.07 1024.02 1023.98 1023.97 1024.00 1024.04 1024.08 1024.11 1024.12
1019.30 1019.26 1019.26 1019.28 1019.33 1019.37 1019.41 1019.41 1019.39 1019.35 1019.29 1019.23 1019.18 1019.17 1019.21 1019.28 1019.41 1019.58 1019.79 1020.05 1020.35 1020.70 1021.09 1021.51 1021.96 1022.43 1022.88 1023.30 1023.66 1023.94 1024.15 1024.27 1024.33 1024.34 1024.34 1024.34 1024.36 1024.42 1024.50 1024.60 1024.71 1024.79 1024.84
1019.03 1019.00 1019.00 1019.03 1019.08 1019.14 1019.20 1019.23 1019.25 1019.25 1019.23 1019.21 1019.21 1019.22 1019.27 1019.35 1019.48 1019.64 1019.85 1020.10 1020.40 1020.74 1021.12 1021.55 1021.99 1022.44 1022.88 1023.29 1023.64 1023.91 1024.12 1024.25 1024.33 1024.38 1024.42 1024.47 1024.56 1024.67 1024.82 1024.98 1025.14 1025.28 1025.36
1018.73 1018.72 1018.74 1018.80 1018.87 1018.96 1019.04 1019.12 1019.17 1019.21 1019.23 1019.24 1019.26 1019.29 1019.35 1019.44 1019.57 1019.73 1019.93 1020.18 1020.47 1020.80 1021.17 1021.57 1021.99 1022.41 1022.81 1023.18 1023.49 1023.74 1023.92 1024.05 1024.15 1024.22 1024.30 1024.40 1024.54 1024.72 1024.93 1025.15 1025.36 1025.54 1025.66
1018.35 1018.39 1018.45 1018.54 1018.65 1018.78 1018.90 1019.01 1019.11 1019.18 1019.23 1019.28 1019.32 1019.37 1019.43 1019.53 1019.65 1019.81 1020.01 1020.25 1020.52 1020.83 1021.17 1021.53 1021.90 1022.27 1022.61 1022.92 1023.18 1023.38 1023.54 1023.66 1023.76 1023.86 1023.97 1024.12 1024.32 1024.55 1024.81 1025.08 1025.34 1025.57 1025.74
1017.87 1017.95 1018.06 1018.19 1018.35 1018.51 1018.68 1018.83 1018.96 1019.07 1019.16 1019.23 1019.30 1019.37 1019.45 1019.55 1019.68 1019.84 1020.04 1020.26 1020.51 1020.79 1021.09 1021.40 1021.70 1022.00 1022.26 1022.50 1022.70 1022.85 1022.98 1023.09 1023.19 1023.31 1023.46 1023.65 1023.89 1024.17 1024.48 1024.80 1025.10 1025.38 1025.60
1017.26 1017.36 1017.50 1017.67 1017.86 1018.07 1018.27 1018.46 1018.63 1018.78 1018.91 1019.02 1019.12 1019.22 1019.33 1019.45 1019.60 1019.77 1019.96 1020.17 1020.41 1020.65 1020.90 1021.14 1021.38 1021.59 1021.79 1021.95 1022.09 1022.20 1022.29 1022.39 1022.50 1022.64 1022.82 1023.05 1023.32 1023.64 1023.98 1024.34 1024.69 1025.00 1025.28
1016.50 1016.61 1016.76 1016.94 1017.15 1017.37 1017.60 1017.82 1018.03 1018.22 1018.39 1018.55 1018.70 1018.84 1019.00 1019.16 1019.34 1019.54 1019.75 1019.96 1020.18 1020.40 1020.60 1020.79 1020.97 1021.11 1021.24 1021.34 1021.43 1021.50 1021.58 1021.67 1021.79 1021.95 1022.15 1022.40 1022.70 1023.04 1023.40 1023.78 1024.16 1024.51 1024.83
1015.63 1015.73 1015.86 1016.02 1016.22 1016.45 1016.68 1016.92 1017.16 1017.39 1017.61 1017.82 1018.03 1018.24 1018.46 1018.68 1018.92 1019.15 1019.39 1019.63 1019.85 1020.05 1020.23 1020.39 1020.51 1020.62 1020.70 1020.76 1020.82 1020.88 1020.95 1021.05 1021.17 1021.34 1021.56 1021.82 1022.12 1022.46 1022.83 1023.21 1023.59 1023.96 1024.30
1014.75 1014.79 1014.87 1015.00 1015.17 1015.37 1015.60 1015.85 1016.11 1016.37 1016.63 1016.90 1017.18 1017.46 1017.75 1018.04 1018.34 1018.63 1018.92 1019.18 1019.42 1019.63 1019.81 1019.96 1020.07 1020.15 1020.22 1020.28 1020.33 1020.40 1020.48 1020.59 1020.73 1020.91 1021.12 1021.38 1021.67 1021.99 1022.33 1022.69 1023.05 1023.40 1023.75
Thickness
5761 5760 5758 5758 5759 5759 5759 5758 5758 5757 5757 5757 5758 5757 5757 5756 5755 5754 5751 5747 5744 5743 5742 5741 5740 5738 5737 5736 5735 5734 5732 5730 5728 5726 5725 5724 5723 5722 5722 5721 5720 5719 5718
5759 5759 5759 5758 5758 5758 5758 5758 5758 5757 5757 5756 5755 5755 5754 5754 5753 5752 5751 5748 5745 5743 5741 5740 5739 5738 5737 5735 5734 5733 5731 5729 5727 5725 5724 5723 5722 5721 5720 5719 5718 5717 5716
5758 5758 5759 5759 5758 5757 5756 5756 5756 5756 5756 5755 5754 5754 5753 5752 5751 5749 5749 5748 5746 5743 5741 5739 5738 5737 5736 5735 5733 5731 5729 5727 5726 5724 5723 5722 5720 5718 5717 5716 5715 5714 5713
5758 5758 5758 5759 5757 5757 5757 5756 5756 5755 5754 5754 5753 5752 5751 5750 5749 5748 5747 5746 5746 5745 5742 5739 5738 5736 5735 5734 5732 5730 5728 5726 5725 5723 5722 5720 5718 5716 5715 5713 5712 5711 5711
5758 5759 5758 5757 5756 5757 5756 5757 5755 5754 5752 5751 5752 5750 5751 5749 5748 5747 5746 5745 5744 5743 5742 5739 5737 5735 5733 5732 5731 5729 5727 5726 5724 5722 5720 5718 5716 5714 5713 5711 5710 5709 5708
5758 5758 5758 5755 5756 5756 5754 5753 5751 5751 5751 5750 5752 5750 5749 5748 5747 5746 5745 5745 5743 5741 5740 5739 5737 5734 5731 5730 5728 5727 5725 5724 5723 5721 5719 5716 5714 5712 5710 5709 5707 5706 5705
5758 5757 5758 5756 5755 5755 5753 5753 5751 5750 5749 5750 5748 5745 5746 5747 5745 5744 5743 5742 5741 5739 5738 5736 5734 5733 5731 5727 5725 5724 5723 5721 5720 5718 5716 5713 5711 5709 5707 5706 5705 5703 5702
5758 5759 5756 5757 5755 5753 5751 5750 5749 5749 5749 5749 5745 5741 5739 5740 5741 5742 5740 5738 5738 5737 5736 5734 5731 5729 5728 5727 5724 5721 5719 5718 5716 5714 5712 5710 5708 5706 5705 5703 5702 5700 5699
5758 5757 5756 5756 5754 5754 5752 5749 5748 5746 5745 5746 5746 5741 5735 5732 5735 5737 5736 5735 5733 5732 5732 5730 5728 5726 5725 5724 5722 5718 5716 5714 5712 5710 5708 5706 5704 5703 5702 5699 5697 5696 5695
5758 5757 5756 5755 5753 5754 5751 5750 5749 5747 5744 5743 5744 5743 5740 5738 5731 5729 5732 5732 5731 5728 5727 5727 5725 5723 5721 5719 5716 5714 5711 5709 5708 5706 5704 5702 5700 5699 5697 5695 5693 5692 5691
5759 5758 5756 5754 5753 5753 5750 5748 5747 5746 5746 5743 5742 5741 5739 5737 5735 5730 5725 5725 5726 5726 5724 5722 5721 5719 5716 5715 5713 5710 5706 5705 5703 5701 5699 5697 5695 5694 5692 5690 5689 5688 5687
5761 5759 5757 5754 5753 5752 5749 5747 5746 5745 5744 5742 5741 5740 5737 5735 5733 5731 5726 5722 5721 5721 5720 5718 5717 5714 5712 5710 5707 5703 5701 5699 5697 5696 5694 5692 5691 5689 5687 5686 5684 5683 5681
5762 5758 5758 5754 5753 5751 5749 5747 5745 5743 5742 5740 5739 5738 5737 5736 5736 5732 5727 5723 5719 5718 5716 5714 5712 5710 5707 5705 5701 5697 5695 5693 5692 5690 5688 5686 5685 5683 5682 5680 5679 5677 5676
5763 5760 5757 5755 5753 5751 5749 5747 5746 5744 5741 5739 5738 5736 5736 5736 5735 5732 5727 5722 5717 5715 5712 5709 5708 5705 5702 5699 5695 5692 5690 5688 5686 5685 5683 5681 5679 5678 5676 5674 5672 5671 5670
5764 5760 5757 5755 5752 5750 5748 5746 5745 5742 5740 5739 5738 5736 5735 5735 5733 5731 5727 5723 5716 5711 5707 5704 5703 5700 5697 5694 5690 5689 5686 5683 5681 5680 5678 5676 5674 5672 5670 5668 5666 5665 5663
5762 5759 5757 5754 5752 5749 5747 5745 5744 5741 5739 5737 5735 5733 5732 5733 5730 5728 5725 5722 5719 5714 5706 5703 5699 5698 5693 5691 5687 5684 5682 5678 5676 5674 5673 5671 5669 5667 5665 5662 5661 5659 5657
5761 5758 5755 5753 5751 5748 5746 5744 5743 5741 5738 5736 5734 5732 5730 5728 5727 5725 5723 5720 5716 5712 5705 5701 5698 5694 5689 5687 5684 5681 5679 5676 5673 5669 5667 5665 5664 5661 5659 5657 5655 5652 5651
5761 5758 5755 5752 5750 5748 5745 5743 5741 5740 5737 5734 5733 5730 5728 5727 5723 5722 5719 5716 5713 5709 5704 5698 5695 5691 5687 5684 5681 5677 5676 5674 5670 5664 5661 5659 5658 5656 5654 5652 5649 5647 5644
5760 5758 5754 5751 5749 5747 5744 5742 5740 5738 5736 5733 5731 5728 5726 5723 5720 5719 5715 5714 5711 5708 5703 5698 5694 5690 5686 5682 5677 5674 5672 5669 5667 5662 5658 5654 5652 5650 5648 5646 5643 5641 5638
5760 5757 5754 5751 5749 5746 5744 5741 5738 5736 5733 5731 5729 5726 5724 5721 5718 5715 5713 5710 5708 5704 5701 5697 5693 5688 5683 5679 5675 5672 5669 5666 5664 5661 5656 5652 5648 5645 5643 5640 5638 5635 5632
5761 5757 5753 5750 5748 5746 5743 5740 5737 5735 5731 5729 5726 5724 5722 5718 5714 5712 5711 5708 5705 5702 5699 5695 5690 5686 5681 5676 5674 5671 5667 5664 5660 5658 5655 5651 5647 5644 5640 5636 5633 5630 5627
5759 5755 5752 5749 5746 5745 5739 5734 5732 5732 5729 5727 5724 5722 5719 5715 5710 5706 5704 5701 5699 5697 5695 5691 5688 5683 5678 5675 5672 5669 5665 5662 5657 5655 5651 5649 5646 5643 5640 5636 5630 5626 5622
5757 5753 5750 5747 5744 5739 5734 5730 5727 5727 5726 5724 5721 5719 5718 5716 5708 5706 5700 5696 5694 5691 5688 5687 5685 5681 5677 5674 5669 5665 5661 5658 5655 5653 5649 5646 5644 5640 5637 5633 5627 5623 5619
5755 5751 5748 5745 5741 5737 5731 5727 5724 5722 5723 5721 5718 5716 5713 5710 5707 5702 5699 5696 5693 5690 5685 5683 5680 5678 5675 5671 5666 5663 5659 5654 5650 5648 5645 5642 5641 5638 5635 5630 5624 5620 5616
5753 5749 5746 5743 5739 5735 5729 5725 5720 5721 5719 5717 5715 5712 5709 5705 5700 5695 5693 5691 5688 5686 5681 5677 5673 5670 5667 5664 5661 5659 5655 5652 5648 5645 5643 5640 5638 5635 5632 5628 5623 5617 5614
5750 5747 5744 5740 5737 5733 5727 5722 5717 5719 5717 5715 5712 5709 5703 5700 5694 5690 5689 5687 5683 5681 5679 5674 5669 5666 5663 5659 5655 5654 5653 5650 5648 5644 5641 5636 5634 5631 5628 5627 5622 5616 5611